Location: Brookview Estates
(36.0476°N, 86.6931°W)
Time: 22:55:44
(UTC+00:00)

Okean 1-7 - Pass Details

Date: 30 March 2020
Orbit: 590 x 620 km, 82.5° (Epoch: 29 May)

Event Time Altitude Azimuth Distance (km) Brightness Sun altitude
Exits shadow 10:38:17 17° 266° (W) 1,532 4.4 -12.2°
Maximum altitude 10:39:20 19° 285° (WNW) 1,469 4.5 -12.0°
Drops below altitude 10° 10:42:27 10° 331° (NNW) 1,975 5.5 -11.3°
Sets 10:45:16 0° 350° (N) 2,890 6.5 -10.8°
